CAPE
276 283 363 73 201 203 205 164 160 129 148 23 6 70 117 379 98 17 32 83 101 116 207 307 522 451 761 738 1098 1374 1334 1684 1910 1997 1855 1492 1612 1155 1578 1511 1431 1449 1462 1355 1401 1443 1574 1538 1746
14 41 115 133 159 50 230 114 90 27 16 138 292 346 434 319 217 125 99 200 168 180 337 318 1085 583 153 716 1063 1320 1316 1534 1860 1872 1850 1693 1658 1640 1464 1471 1528 1698 2192 1806 1734 1784 1403 1645 1692
0 0 20 176 194 218 167 160 70 21 35 70 284 409 337 139 186 152 62 244 552 673 540 354 444 378 310 553 768 745 982 1077 1302 1946 1972 1977 1889 1751 1744 1620 1466 1720 1747 1705 1800 1799 1823 1863 1987
256 238 88 307 240 160 151 76 36 74 30 142 212 340 259 79 120 327 157 529 564 556 574 557 610 340 315 766 749 91 1156 1232 1359 1597 1998 2029 1936 1811 1778 1729 1881 1838 1901 1827 1662 1836 1819 1741 1681
153 105 320 216 163 179 384 152 174 44 24 115 6 131 136 613 529 254 209 387 396 756 864 950 1524 666 818 1223 981 978 1193 1526 1454 1872 2077 1974 1829 1711 2053 1909 2069 2017 2066 1799 1778 1683 1928 1802 2143
148 98 182 266 146 151 251 298 277 131 32 23 37 117 381 593 348 265 208 266 267 703 832 913 1544 1374 841 1554 1359 1741 1601 1637 1693 1559 1479 1562 1761 1951 2237 2198 1858 2081 1982 1632 1564 1817 1603 1787 2503
77 198 91 127 201 189 175 86 233 184 11 52 123 160 336 514 325 281 286 539 770 922 1010 1157 826 1698 1866 2040 1782 1650 1598 1809 1701 1323 1066 1593 2102 1950 1847 2015 1953 1822 1638 1628 1727 1555 1457 1426 2195
75 187 65 107 169 146 50 54 106 157 102 98 76 136 317 524 403 394 591 864 1118 1008 1131 1513 1542 1611 1896 1445 1771 1692 1665 1748 1858 1765 1714 1968 1943 1552 1600 2275 2134 1490 1420 1500 1514 1271 1087 1186 1387
134 115 111 69 55 42 26 122 324 259 42 185 273 175 293 626 697 510 672 739 1062 1228 1235 1513 1499 1864 2054 1945 1806 1749 1393 1793 2013 1823 1842 2199 1466 1131 1051 1759 1236 931 875 871 771 685 768 1201 1428
57 111 46 15 21 14 43 36 210 218 71 234 202 304 522 734 635 433 395 408 812 892 942 1832 1787 1514 1459 1488 2145 2317 1920 1850 1796 2270 2102 1821 1816 1851 1472 1908 1653 1464 1448 1494 1564 1711 1635 472 347
123 113 41 11 3 32 117 159 128 231 132 210 250 390 530 522 538 314 220 262 567 389 846 1614 1777 1853 1512 1953 1788 1732 1959 1524 1835 2043 1639 1558 1330 1392 1426 1815 1694 1648 1296 516 598 639 644 999 913
205 339 107 18 69 42 110 72 111 174 230 150 185 329 482 530 609 480 235 319 474 510 772 1625 1612 1834 1964 1833 1290 1453 1039 1222 1468 1576 1703 1776 1072 964 860 705 891 980 937 1073 1357 1314 1681 1811 1754
180 293 148 158 41 36 14 76 142 208 244 224 143 302 368 492 566 514 212 400 544 483 801 1186 1461 1826 1783 1948 1701 1257 1266 933 1084 1279 1498 1497 1229 1244 800 755 690 1060 1086 1188 1476 1547 1594 1561 1248
164 414 229 120 105 73 58 76 193 277 258 198 183 255 341 456 475 347 393 424 548 435 727 1276 1442 1623 1437 1766 1715 1625 1524 1444 1380 1263 1354 1565 1478 1534 951 1428 1119 1432 1770 1549 1481 1651 1646 1696 1333
450 440 391 252 130 137 106 81 331 252 228 239 198 172 267 359 427 345 401 348 429 468 551 1132 1216 1273 1146 1479 1501 1656 1572 1302 1167 1226 1547 1720 1731 1588 1888 1649 1449 1812 1993 1936 1630 1382 1694 1603 540
560 467 331 523 247 201 96 107 195 143 280 263 216 189 210 293 413 405 450 301 304 485 692 993 800 1048 985 1103 1391 1554 1505 1303 1267 1078 1769 1557 1421 2068 1902 1410 1899 1849 1628 1613 1805 1760 1572 1135 599
563 351 329 534 496 311 140 166 60 221 326 320 285 284 303 341 326 434 428 446 240 273 599 824 1088 1124 1035 1198 1246 1481 1470 1364 1149 1180 1752 1526 1418 2001 1688 1928 1944 1487 1372 1625 1623 1983 1940 920 606
290 357 187 267 529 455 319 335 94 182 224 353 334 307 345 356 369 366 450 468 527 404 455 799 923 1249 1316 1135 1064 1159 1265 1315 1261 1311 1586 1332 2057 1857 1540 1489 1904 1094 1338 1455 2278 2486 1383 1228 750
61 251 10 190 624 596 535 369 410 154 277 230 147 281 243 402 363 328 359 444 518 528 552 723 981 1060 1046 893 933 1084 1143 1314 1388 1403 1751 1228 2189 1865 1330 1243 1280 1295 1499 1769 2165 2415 2168 1608 886
0 0 0 462 534 411 258 400 327 216 326 329 226 238 241 214 336 266 311 419 451 565 505 740 818 1025 951 853 910 1051 1149 1155 1339 1422 1789 1874 2024 2019 1569 1221 984 1002 1153 1795 2242 2360 1933 1646 1619
0 0 0 1 449 328 649 569 617 519 206 288 300 268 189 212 92 285 364 421 446 520 517 580 785 896 1170 876 758 961 1266 1553 1543 1562 1634 1844 1968 1843 1301 1360 831 680 1285 1304 2129 1602 2073 2019 1472
0 0 0 477 390 101 483 97 213 629 610 255 286 263 275 239 223 108 358 483 513 537 500 513 673 788 1022 1224 924 1095 1184 977 1263 1718 1650 1571 1828 1789 1428 1892 882 564 719 1511 1909 482 900 2173 2210
0 2 19 273 168 47 428 156 189 613 702 684 333 213 265 195 185 235 232 527 641 601 512 441 673 881 1031 911 1027 1164 1203 1239 1693 1639 1771 1765 1381 1030 1685 2246 1675 1292 308 1095 2039 1968 1853 1798 2182
0 40 53 69 118 87 43 109 59 775 661 419 335 323 161 224 246 234 219 504 665 684 631 523 758 987 1138 1084 965 1072 1252 1537 1548 1685 1486 1405 1501 1338 1617 2297 2182 1562 622 691 949 1588 2242 1365 909
56 114 139 109 123 47 19 68 63 170 116 201 259 301 286 211 253 316 316 351 599 662 698 658 767 939 959 1070 947 974 1414 1576 2012 2082 1589 1702 1479 1428 1512 2303 2461 1841 1621 1143 431 634 1900 2545 1566
68 168 40 26 11 2 15 93 71 160 82 201 184 145 308 396 221 309 351 314 538 612 737 739 976 1065 902 974 1116 1386 1464 1275 1240 1853 1552 1594 1503 1531 1604 1847 2245 2192 1813 1551 1247 1300 1816 2557 2425
1 70 0 0 0 0 0 22 57 134 73 107 129 113 302 255 219 259 366 381 158 435 611 720 966 1087 952 887 997 1230 1431 1272 1205 1522 1644 1448 1656 1420 1762 1609 1985 2061 2039 1964 1997 1895 2206 2233 2133
0 0 0 0 0 0 2 51 35 253 226 57 61 35 14 27 219 206 323 457 472 181 302 532 836 1022 1019 905 928 911 1085 1357 1320 1539 1667 1649 1664 1625 1459 1777 1682 1879 1985 2138 2283 2002 1946 1999 1825
0 0 0 0 3 0 0 0 112 191 235 116 4 1 61 130 99 183 170 371 658 382 213 435 760 982 922 873 900 897 860 1048 1274 1294 1478 1715 1967 1978 1838 1815 1721 1666 1742 2017 2139 2359 2114 1971 1867
0 1 11 0 20 7 0 0 9 29 31 1 0 0 79 129 331 442 418 259 451 593 529 556 688 825 914 856 915 922 980 1028 1006 1188 1298 1651 1781 1857 1930 2027 1962 1863 1803 1916 1995 1781 1498 2024 1904
CIN
-166 -172 -172 -269 -65 -43 -15 -16 -26 -38 -38 -89 -12 -48 -41 -41 -52 -23 -76 -31 -31 -23 -24 -6 -4 -5 -4 -5 -3 -2 -4 -1 -0 -0 -0 -0 -0 -0 -0 -0 -0 -2 -0 -0 -0 -0 -2 -0 -0
-132 -145 -239 -200 -34 -3 -8 -40 -28 -44 -47 -61 -37 -28 -24 -47 -82 -80 -51 -12 -9 -15 -10 -3 -5 -5 -14 -2 -3 -3 -3 -1 -0 -0 -0 -0 -0 -0 -1 -2 -0 -0 -0 -0 -0 -0 -0 -0 -0
-0 -0 -208 -99 -85 -15 -6 -35 -49 -80 -62 -48 -31 -40 -50 -103 -107 -76 -73 -14 -4 -6 -4 -4 -8 -8 -8 -6 -5 -4 -4 -3 -1 -1 -0 -0 -0 -0 -0 -0 -0 -0 -0 -0 -0 -0 -0 -0 -0
-167 -162 -166 -40 -44 -46 -28 -34 -52 -40 -34 -30 -31 -37 -51 -124 -88 -45 -49 -2 -5 -4 -0 -2 -4 -15 -6 -10 -6 -34 -2 -2 -10 -1 -0 -0 -0 -0 -0 -0 -0 -0 -4 -0 -1 -0 -0 -0 -0
-203 -180 -36 -42 -73 -52 -18 -51 -22 -28 -55 -38 -21 -60 -73 -1 -27 -54 -33 -9 -10 -0 -0 -0 -1 -4 -2 -1 -6 -1 -2 -6 -3 -0 -0 -0 -2 -1 -0 -0 -0 -0 -0 -0 -1 -1 -0 -2 -1
-142 -127 -25 -18 -60 -75 -47 -65 -34 -22 -43 -36 -65 -80 -27 -1 -38 -45 -29 -20 -19 -1 -0 -0 -0 -1 -0 -2 -5 -1 -5 -5 -3 -3 -4 -3 -2 -1 -0 -0 -0 -0 -0 -0 -3 -10 -14 -11 -1
-77 -75 -42 -32 -37 -50 -82 -81 -59 -19 -16 -56 -63 -73 -37 -8 -30 -48 -18 -6 -3 -2 -0 -0 -0 -0 -1 -1 -1 -1 -6 -6 -6 -2 -8 -1 -0 -0 -0 -0 -0 -0 -1 -1 -7 -15 -20 -25 -8
-172 -101 -74 -35 -37 -39 -120 -93 -98 -35 -22 -50 -54 -44 -56 -32 -27 -34 -9 -0 -0 -1 -0 -0 -0 -0 -0 -0 -0 -0 -3 -2 -4 -3 -3 -1 -0 -0 -0 -0 -0 -2 -7 -11 -18 -32 -39 -43 -33
-153 -95 -41 -70 -63 -87 -164 -42 -22 -20 -24 -31 -51 -60 -87 -42 -13 -17 -6 -0 -0 -0 -0 -0 -0 -0 -0 -0 -0 -0 -4 -0 -3 -0 -4 -1 -0 -0 -0 -0 -5 -26 -36 -39 -53 -66 -63 -52 -47
-106 -46 -61 -78 -70 -112 -80 -75 -50 -18 -22 -47 -85 -94 -60 -34 -26 -56 -55 -32 -0 -0 -1 -0 -0 -0 -0 -0 -0 -0 -1 -3 -4 -0 -0 -0 -0 -0 -1 -0 -2 -22 -27 -30 -38 -34 -41 -125 -105
-84 -51 -96 -93 -126 -78 -56 -45 -69 -32 -23 -36 -50 -81 -52 -45 -35 -59 -77 -56 -23 -19 -0 -0 -0 -0 -0 -0 -0 -0 -0 -4 -3 -0 -2 -5 -4 -0 -0 -0 -5 -13 -31 -48 -46 -49 -54 -52 -56
-49 -44 -76 -97 -75 -76 -44 -64 -67 -45 -28 -28 -54 -85 -84 -63 -46 -34 -85 -74 -51 -29 -4 -0 -0 -0 -0 -0 -0 -0 -9 -12 -4 -4 -7 -6 -11 -19 -31 -32 -44 -52 -43 -39 -32 -21 -27 -30 -42
-64 -54 -77 -67 -58 -107 -88 -59 -75 -51 -51 -46 -85 -80 -74 -61 -49 -48 -77 -63 -44 -39 -10 -0 -0 -0 -0 -0 -0 -7 -10 -10 -12 -12 -18 -15 -18 -26 -47 -59 -59 -50 -46 -35 -35 -33 -32 -40 -46
-97 -64 -70 -70 -104 -32 -37 -48 -38 -47 -59 -64 -76 -69 -72 -77 -65 -82 -96 -80 -59 -53 -26 -0 -0 -0 -0 -0 -10 -13 -12 -10 -13 -22 -24 -30 -27 -37 -46 -34 -42 -39 -40 -38 -43 -43 -29 -28 -39
-64 -58 -45 -55 -79 -86 -80 -52 -42 -80 -55 -59 -52 -57 -66 -75 -78 -73 -75 -84 -74 -62 -40 -5 -0 -0 -4 -5 -11 -15 -11 -11 -19 -25 -34 -32 -36 -51 -51 -38 -37 -40 -42 -50 -47 -45 -33 -18 -49
-40 -36 -16 -33 -63 -92 -91 -37 -45 -138 -70 -58 -49 -60 -66 -74 -73 -59 -68 -74 -91 -80 -44 -14 -18 -5 -13 -16 -17 -18 -15 -17 -22 -34 -34 -47 -60 -43 -53 -40 -32 -42 -45 -39 -27 -28 -15 -24 -39
-36 -22 -19 -28 -45 -56 -62 -32 -100 -153 -63 -55 -44 -43 -55 -53 -81 -76 -61 -80 -95 -101 -61 -24 -14 -12 -19 -18 -15 -22 -27 -20 -36 -40 -42 -57 -59 -48 -52 -35 -43 -79 -51 -37 -32 -20 -23 -27 -47
-29 -10 -36 -18 -51 -51 -39 -24 -111 -94 -53 -47 -42 -42 -46 -54 -62 -58 -63 -58 -66 -105 -94 -29 -27 -14 -15 -22 -30 -34 -31 -30 -37 -29 -31 -69 -41 -56 -65 -52 -54 -83 -40 -35 -35 -37 -55 -33 -47
-39 -26 -30 -55 -69 -34 -28 -21 -38 -121 -77 -72 -111 -39 -71 -56 -28 -53 -69 -59 -68 -72 -74 -54 -23 -30 -31 -29 -14 -18 -11 -22 -27 -22 -32 -75 -43 -51 -82 -68 -70 -78 -45 -56 -57 -33 -39 -30 -92
-0 -0 -0 -73 -86 -62 -69 -39 -51 -108 -71 -65 -95 -80 -72 -104 -45 -64 -67 -69 -78 -73 -80 -57 -48 -38 -38 -29 -30 -29 -27 -23 -18 -20 -26 -33 -33 -39 -57 -90 -75 -94 -49 -55 -52 -50 -26 -41 -75
-0 -0 -0 -18 -88 -73 -52 -32 -51 -95 -141 -112 -98 -86 -63 -76 -154 -84 -86 -71 -81 -77 -92 -83 -63 -58 -35 -41 -39 -43 -33 -27 -30 -20 -16 -23 -33 -34 -65 -69 -96 -112 -80 -42 -49 -65 -44 -10 -83
-0 -0 -0 -66 -27 -5 -57 -0 -76 -90 -110 -154 -95 -99 -75 -85 -98 -185 -69 -77 -85 -88 -87 -87 -78 -63 -43 -34 -25 -19 -13 -8 -9 -13 -16 -26 -44 -36 -44 -37 -96 -129 -95 -67 -51 -112 -90 -50 -10
-0 -6 -27 -51 -30 -37 -32 -5 -26 -115 -89 -94 -132 -133 -96 -123 -132 -85 -158 -80 -75 -81 -94 -99 -89 -62 -39 -46 -33 -16 -10 -7 -10 -19 -32 -28 -57 -65 -30 -21 -44 -61 -102 -74 -42 -51 -66 -56 -28
-0 -60 -97 -87 -42 -2 -16 -17 -7 -49 -75 -121 -146 -152 -179 -153 -97 -109 -137 -66 -82 -72 -83 -92 -88 -68 -48 -51 -42 -33 -19 -17 -14 -16 -17 -18 -24 -26 -38 -18 -27 -45 -78 -74 -61 -53 -36 -58 -76
-52 -33 -13 -18 -4 -0 -101 -25 -8 -131 -174 -183 -189 -181 -176 -170 -151 -109 -98 -117 -94 -78 -81 -83 -92 -66 -60 -48 -35 -39 -20 -18 -21 -17 -12 -11 -13 -16 -29 -20 -20 -21 -45 -52 -99 -88 -34 -17 -27
-29 -28 -0 -0 -0 -0 -130 -48 -5 -168 -302 -260 -254 -258 -220 -192 -183 -105 -65 -114 -101 -90 -83 -83 -83 -67 -66 -53 -42 -27 -30 -15 -19 -14 -9 -11 -10 -11 -30 -25 -18 -21 -28 -29 -43 -31 -15 -9 -11
-3 -16 -0 -0 -0 -0 -0 -61 -78 -244 -255 -249 -301 -300 -212 -229 -213 -154 -98 -74 -171 -105 -103 -97 -95 -79 -68 -58 -43 -31 -30 -26 -18 -31 -26 -18 -29 -14 -31 -30 -22 -19 -21 -20 -16 -5 -5 -8 -11
-0 -0 -0 -0 -0 -0 -13 -34 -4 -123 -148 -223 -247 -284 -349 -348 -200 -171 -109 -38 -42 -146 -136 -88 -71 -83 -73 -56 -49 -38 -31 -29 -27 -24 -24 -24 -29 -46 -34 -31 -32 -23 -22 -16 -13 -5 -7 -10 -4
-0 -0 -0 -0 -64 -0 -0 -0 -125 -123 -152 -157 -65 -98 -278 -247 -244 -177 -137 -53 -33 -92 -137 -88 -67 -77 -71 -63 -50 -42 -37 -25 -27 -26 -21 -19 -23 -36 -38 -40 -38 -29 -24 -19 -18 -9 -7 -10 -6
-0 -8 -29 -0 -30 -96 -0 -0 -238 -233 -267 -13 -0 -0 -212 -210 -136 -102 -76 -93 -36 -61 -57 -70 -77 -65 -89 -68 -70 -53 -31 -26 -19 -18 -20 -26 -26 -28 -27 -30 -32 -25 -23 -22 -23 -19 -13 -8 -3
Wind_Speed
7 6 2 2 2 1 4 4 2 6 6 2 9 2 5 6 3 4 7 4 11 11 8 8 7 8 8 8 8 9 11 12 12 14 15 15 14 15 13 14 15 16 16 16 16 15 14 15 15
6 4 1 0 2 4 4 4 6 4 6 11 10 7 4 5 4 10 7 10 12 11 9 8 8 8 9 8 7 8 9 10 12 13 14 15 14 14 13 15 15 15 15 14 15 16 15 15 15
5 2 2 2 2 4 4 6 6 11 8 6 4 7 4 3 8 9 9 12 11 10 8 8 9 10 11 9 10 8 8 10 5 12 14 14 15 14 14 14 15 15 16 16 16 16 15 14 12
3 2 1 3 10 5 5 8 13 7 4 4 10 9 6 6 7 6 14 12 12 9 8 10 12 12 9 8 11 11 7 10 9 12 12 14 14 13 15 14 15 16 16 15 13 14 13 11 10
1 1 3 4 4 3 7 9 4 3 4 4 4 8 8 5 7 15 13 11 12 10 9 10 11 13 10 8 11 10 7 8 9 12 13 13 14 14 14 15 15 15 14 13 13 12 12 10 7
1 1 3 4 3 1 4 6 1 7 6 8 12 10 5 6 13 12 11 11 10 11 10 11 10 11 10 8 11 10 9 9 11 15 14 13 15 15 15 15 14 14 12 12 12 12 12 10 10
1 2 3 7 6 3 2 4 4 5 5 6 7 7 5 8 10 12 10 9 9 8 9 9 9 9 10 9 10 9 7 10 17 16 12 9 14 15 13 14 14 12 11 11 11 10 10 10 11
2 3 3 1 6 4 2 3 3 2 5 8 5 6 8 11 13 12 11 9 7 7 8 8 7 7 6 7 10 9 9 10 12 12 11 12 15 14 13 11 11 11 9 8 9 8 8 9 8
1 3 4 5 5 3 1 3 4 1 9 5 4 4 12 18 15 13 11 9 8 6 7 6 7 7 6 6 8 9 11 11 11 11 12 11 7 9 10 10 10 10 8 7 6 5 6 6 6
2 1 4 6 6 5 5 3 5 1 11 4 9 13 18 17 16 15 13 11 9 8 8 6 5 6 6 6 6 7 7 6 7 7 9 6 7 7 7 9 8 8 7 6 5 5 5 2 2
2 2 1 5 7 9 5 4 2 1 9 6 12 18 17 16 14 13 12 10 10 9 7 7 6 5 5 5 4 3 3 4 4 7 6 6 4 4 4 4 3 3 4 3 3 3 1 1 1
3 2 2 6 7 5 6 2 2 1 2 7 15 19 18 16 14 12 13 11 10 9 9 7 6 6 5 4 4 5 4 3 3 5 4 3 3 3 3 2 2 2 2 2 1 1 1 3 3
3 6 6 8 8 9 3 1 4 5 1 13 17 16 15 14 12 10 9 10 10 11 10 8 6 5 4 5 4 4 4 4 4 3 3 2 2 2 1 2 2 2 2 2 2 2 2 1 2
3 9 12 7 7 6 8 2 4 3 13 15 18 16 14 14 13 11 11 11 11 11 10 9 8 6 4 4 6 4 3 3 2 1 0 3 1 1 2 2 3 3 3 2 1 1 2 2 3
11 10 8 5 5 4 8 3 5 4 10 17 17 15 13 13 13 12 11 11 12 10 10 10 8 7 5 5 5 4 3 3 3 3 2 3 2 1 2 1 1 2 3 2 1 0 2 0 2
1 2 2 4 6 5 4 1 6 4 11 14 16 14 13 14 13 12 11 11 11 10 10 10 9 8 6 5 4 3 2 2 2 2 1 3 3 1 0 1 0 2 2 2 2 2 1 1 3
2 2 2 6 6 5 7 1 4 5 12 13 15 14 13 13 13 13 14 12 11 10 11 11 9 9 7 5 4 3 3 2 2 2 2 3 3 3 1 1 1 1 1 3 2 1 2 2 2
5 3 2 2 9 6 9 8 2 7 12 14 14 14 14 14 17 14 13 12 12 10 10 11 7 8 7 4 3 3 3 3 2 2 3 3 3 3 2 1 2 2 1 2 1 2 1 1 1
2 3 1 2 8 7 11 8 8 7 11 12 10 15 15 17 14 11 12 12 12 11 12 13 12 9 7 6 5 4 5 4 4 3 4 4 4 3 2 2 2 2 1 1 1 1 2 3 1
3 3 1 4 7 7 4 10 9 11 14 17 15 16 17 14 13 13 13 13 14 14 13 13 13 12 9 7 5 3 4 5 4 3 4 5 4 4 4 4 3 2 3 1 0 1 2 2 1
7 7 4 1 7 4 1 3 6 7 10 13 16 19 17 15 12 14 14 15 14 15 15 14 15 14 11 9 5 3 4 3 4 4 5 5 5 5 5 5 3 2 3 3 2 1 2 1 2
10 10 2 9 8 1 5 1 2 6 10 11 13 16 17 17 14 8 15 15 16 15 12 13 14 14 12 11 9 9 8 8 6 6 6 6 6 5 5 5 3 3 3 2 2 1 0 2 2
6 4 10 11 4 3 5 4 4 2 8 13 12 12 15 14 17 18 14 16 15 14 14 13 13 13 13 12 12 9 10 7 5 5 7 6 6 6 7 6 5 3 4 3 3 2 1 1 3
9 9 8 5 2 5 1 4 2 4 3 3 2 6 13 14 17 18 13 15 14 13 13 13 14 12 13 13 13 12 11 8 7 7 7 6 6 6 7 6 5 4 4 4 3 2 2 1 2
7 10 4 4 5 3 1 5 4 5 5 5 7 7 6 13 16 16 17 15 15 16 15 13 15 14 14 14 13 13 12 9 9 8 8 7 7 6 8 8 7 5 4 4 4 4 3 3 3
10 8 6 8 6 4 3 5 1 3 1 3 6 8 10 10 16 17 17 12 14 16 15 15 15 14 15 14 15 13 13 8 7 8 6 7 7 7 6 8 7 7 6 5 4 4 4 4 4
6 6 3 5 2 4 1 3 7 6 5 4 6 6 6 5 8 14 14 15 11 14 16 16 15 15 14 16 13 14 12 12 9 9 8 7 7 6 8 8 9 8 8 7 6 5 6 5 5
2 7 5 3 7 8 4 4 6 8 11 4 3 4 5 5 3 8 10 14 14 11 12 14 15 16 16 15 14 13 14 13 11 9 10 9 8 8 8 9 9 9 8 8 8 6 6 6 6
5 5 4 3 3 7 8 4 3 5 8 7 3 3 6 5 5 6 8 11 14 12 11 14 15 15 15 14 14 14 13 13 12 11 10 10 8 8 9 9 10 10 10 9 8 9 8 8 7
1 3 6 6 5 1 3 4 3 2 4 3 3 4 3 5 7 7 8 10 13 13 14 15 15 15 15 15 13 13 12 13 13 12 11 10 10 9 9 9 10 10 11 10 10 11 9 10 9
Wind_Direction
158 148 158 209 194 97 81 76 91 121 144 83 140 147 101 47 10 61 123 155 133 129 136 137 132 128 111 110 118 118 124 120 117 116 118 110 108 110 101 106 109 109 109 106 107 112 108 103 98
145 154 220 153 76 113 83 30 89 75 111 124 103 120 73 78 64 115 123 140 133 126 134 133 134 138 121 112 119 104 108 105 112 113 112 116 113 115 116 110 104 103 104 112 112 112 111 106 101
166 233 288 65 84 94 68 52 97 108 125 152 106 63 62 65 114 124 124 137 125 121 121 121 130 128 117 102 94 84 99 101 120 111 119 120 113 113 107 106 108 114 109 105 106 106 107 108 108
159 178 153 51 93 65 65 79 115 115 108 98 115 79 82 87 127 124 140 139 126 126 116 121 115 104 106 111 115 88 116 128 125 122 114 112 119 117 111 118 112 108 106 109 107 106 109 106 103
76 252 73 93 78 99 77 80 43 88 83 126 127 110 98 51 108 133 143 140 131 128 114 118 118 123 131 125 113 130 135 126 128 113 109 108 111 113 112 110 109 112 110 107 116 103 92 83 82
166 175 120 132 130 86 87 23 78 84 101 118 113 109 81 117 135 137 143 141 136 134 128 127 125 122 111 117 121 132 132 126 107 94 83 104 102 102 103 106 111 109 112 115 107 92 83 72 78
131 74 107 138 150 155 107 5 19 111 131 106 127 97 112 142 139 139 139 137 135 134 133 131 132 124 119 121 115 113 113 102 82 89 108 111 102 102 106 110 106 113 114 113 103 92 84 74 77
80 92 110 194 190 122 55 47 332 113 89 117 152 146 161 160 150 139 140 137 140 141 130 131 121 112 108 115 99 96 91 94 104 108 110 107 100 96 90 97 99 105 107 106 98 95 86 78 83
142 97 160 191 170 163 76 79 25 347 132 69 29 109 130 146 148 145 142 152 151 148 147 140 136 122 122 107 92 85 80 72 67 89 83 76 86 95 102 85 103 109 114 104 100 99 90 92 95
28 61 177 163 144 149 129 69 351 176 153 85 81 105 130 148 156 153 161 161 165 163 162 154 147 138 125 110 92 81 79 68 70 77 76 81 77 81 76 75 91 105 102 99 95 80 86 202 105
66 27 131 128 119 123 110 110 25 121 188 190 156 146 150 156 162 164 162 164 170 174 171 165 152 145 138 117 112 98 96 89 73 76 78 77 75 74 91 97 99 106 92 100 101 116 108 64 303
104 43 40 130 115 105 113 119 131 234 6 177 158 155 154 167 173 176 164 162 173 185 180 172 170 162 147 127 134 116 116 97 89 81 87 81 68 81 73 88 86 92 55 41 31 358 309 273 265
99 111 80 116 120 114 115 24 333 273 179 140 144 159 164 170 172 178 177 173 176 183 180 182 178 180 165 151 134 126 128 124 106 112 95 56 51 60 22 37 342 357 353 324 320 309 323 317 293
119 105 115 131 128 137 161 163 300 353 143 148 156 166 174 175 180 176 180 182 184 185 184 175 185 191 185 175 152 140 136 120 104 84 51 219 317 16 330 327 319 356 19 28 13 335 339 332 350
133 102 117 118 141 150 144 204 227 84 165 157 171 172 179 184 184 196 190 188 191 191 181 181 184 184 202 198 174 154 159 112 105 97 97 182 167 94 339 30 335 13 29 36 60 300 316 61 58
132 128 129 146 179 132 205 132 166 174 178 172 175 180 187 193 200 201 195 196 191 182 188 183 181 185 196 202 191 173 167 133 113 130 109 156 173 193 153 158 100 30 36 41 54 335 353 54 61
171 130 156 148 190 153 204 308 126 169 178 184 183 187 199 202 207 205 205 197 190 192 186 185 184 181 192 191 213 200 173 180 135 155 99 104 179 202 212 164 121 5 32 52 23 312 312 133 101
175 178 172 190 189 193 202 245 136 179 192 193 193 198 204 216 218 208 210 206 200 189 182 185 182 183 182 172 193 219 204 207 182 168 159 164 212 206 207 161 188 246 301 58 33 359 54 156 127
191 157 146 200 169 187 212 233 221 191 210 187 214 211 211 218 213 211 214 205 200 191 191 187 185 185 173 179 192 213 210 200 205 204 182 189 217 211 224 250 248 260 324 59 341 84 172 126 118
262 299 19 93 165 218 219 241 220 191 206 207 201 213 216 224 213 207 203 204 202 194 195 189 192 187 186 195 194 207 202 204 205 210 190 193 219 218 231 253 256 264 259 252 328 244 207 109 132
242 251 219 308 155 208 276 255 196 207 226 212 215 220 215 216 219 210 205 208 204 203 194 194 195 191 191 196 184 174 177 163 171 203 204 199 206 216 230 237 255 239 261 262 269 252 263 239 104
242 228 213 150 177 235 222 108 265 238 239 234 224 218 218 217 212 204 209 209 208 206 200 196 196 190 192 190 207 213 211 199 197 202 203 190 201 206 220 230 219 227 240 256 272 226 279 256 232
241 160 155 162 142 193 177 256 128 278 261 244 226 231 229 219 209 210 208 208 213 197 196 195 195 193 190 194 213 217 229 208 189 183 193 197 194 211 223 219 205 219 215 208 247 233 184 254 279
145 112 105 128 168 231 101 274 204 193 223 279 188 246 225 217 221 218 208 205 211 206 200 190 191 194 195 193 204 212 222 201 197 191 197 203 206 204 215 214 214 213 208 213 224 227 218 204 273
186 187 159 190 207 274 129 221 288 191 221 266 302 298 265 236 222 210 204 201 200 202 202 198 193 200 198 193 202 207 222 220 212 197 207 203 204 212 207 208 213 212 221 233 228 252 242 226 232
178 219 202 227 237 243 158 228 201 208 184 242 273 296 301 260 217 214 209 209 202 203 202 202 198 203 196 199 204 207 210 220 221 213 212 219 221 222 211 211 219 214 217 225 211 232 245 227 225
154 202 49 110 93 252 151 258 245 199 234 251 278 306 331 322 230 222 217 206 199 203 205 203 202 205 201 200 204 207 205 218 223 227 227 227 231 234 222 218 218 218 214 215 220 232 232 238 235
219 121 182 218 222 246 203 253 252 218 222 219 263 296 320 323 274 232 223 221 214 197 204 206 213 209 205 206 208 209 205 209 217 225 230 232 227 227 229 226 228 224 218 213 213 225 225 235 238
147 169 75 102 316 257 259 241 208 244 212 215 222 324 341 335 303 254 237 231 217 200 191 217 217 212 210 207 210 213 208 211 219 220 231 236 227 221 223 226 229 224 222 215 218 233 236 225 229
66 149 188 247 181 41 306 259 180 214 165 212 285 303 333 332 311 286 264 232 220 213 208 211 218 212 213 212 207 212 217 216 218 224 221 230 229 236 227 220 218 223 228 222 222 225 226 232 239